Stations météo

Publicité
Bergerac, France (7530): Température de l'air & dewpoint: 20.09.2020 04:00:00 - 26.09.2020 04:00:00 (CEST)Bergerac, France (7530): Température de l'air 5cm: 20.09.2020 04:00:00 - 26.09.2020 04:00:00 (CEST)Bergerac, France (7530): Température de l'air -20cm & Température de l'air -100cm: 20.09.2020 04:00:00 - 26.09.2020 04:00:00 (CEST)Bergerac, France (7530): Vitesse du vent & gusts: 20.09.2020 04:00:00 - 26.09.2020 04:00:00 (CEST)Bergerac, France (7530): Direction du vent: 20.09.2020 04:00:00 - 26.09.2020 04:00:00 (CEST)Bergerac, France (7530): reduced air pressure: 20.09.2020 04:00:00 - 26.09.2020 04:00:00 (CEST)Bergerac, France (7530): visibility: 20.09.2020 04:00:00 - 26.09.2020 04:00:00 (CEST)Bergerac, France (7530): Ensoleillement: 20.09.2020 04:00:00 - 26.09.2020 04:00:00 (CEST)Bergerac, France (7530): Quantités de précipitations: 20.09.2020 04:00:00 - 26.09.2020 04:00:00 (CEST)
Date & Time tt [°C] td [°C] tt 5cm [°C] tt -20cm [°C] tt -100cm [°C] ff [km/h] ff [knt] fx [km/h] fx [knt] dd ppp [hPa] vv [km] sd [min] rr [mm]
26.09.2020 04:00:00 7,0 6,1 2,9 17,0 18,7 5 3 10 5 WNW 1018,2 44 0 0,0
26.09.2020 03:00:00 7,8 6,4 3,0 17,1 18,7 7 4 9 5 W 1018,5 52 0 0,0
26.09.2020 02:00:00 7,9 6,2 3,7 17,2 18,7 5 3 12 7 W 1018,9 60 0 0,0
26.09.2020 01:00:00 8,8 6,4 7,0 17,2 18,7 12 7 18 10 W 1018,8 60 0 0,0
26.09.2020 00:00:00 9,7 6,6 7,7 17,3 18,7 12 6 22 12 W 1018,6 60 0 0,0
25.09.2020 23:00:00 10,9 8,5 7,7 17,4 18,7 11 6 19 11 W 1018,4 56 0 0,0
25.09.2020 22:00:00 10,8 7,3 8,5 17,5 18,8 12 7 61 33 WNW 1017,5 60 0 0,0
25.09.2020 21:00:00 13,1 7,1 11,7 17,5 18,8 22 12 48 26 W 1016,6 60 0 0,0
25.09.2020 20:00:00 13,6 6,7 12,3 17,5 18,8 26 14 46 25 WNW 1015,2 58 0 0,0
25.09.2020 19:00:00 15,3 6,0 14,7 17,5 18,8 31 17 63 34 WNW 1014,1 52 47 0,0
25.09.2020 18:00:00 16,4 5,4 16,2 17,5 18,8 41 22 61 33 W 1013,5 35 50 0,0
25.09.2020 17:00:00 16,5 5,1 13,6 17,5 18,8 34 18 59 32 WNW 1013,0 26 27 0,2
25.09.2020 16:00:00 15,0 10,2 15,2 17,5 18,8 31 17 56 30 W 1012,9 42 31 0,0
25.09.2020 15:00:00 15,1 9,9 14,7 17,6 18,8 31 17 48 26 W 1013,0 49 36 0,0
25.09.2020 14:00:00 13,4 9,1 13,9 17,6 18,8 26 14 41 22 W 1013,1 55 17 0,0
25.09.2020 13:00:00 12,6 9,6 11,6 17,7 18,8 21 11 35 19 W 1013,0 48 10 0,0
25.09.2020 12:00:00 11,1 9,5 10,2 17,8 18,8 22 12 36 20 WSW 1012,8 30 0 1,0
25.09.2020 11:00:00 11,5 9,9 9,6 18,0 18,8 19 10 30 16 WSW 1012,8 20 7 0,7
25.09.2020 10:00:00 10,1 9,0 9,5 18,1 18,8 21 11 41 22 W 1011,6 8 0 2,0
25.09.2020 09:00:00 10,0 8,8 8,8 18,2 18,8 18 10 38 20 WSW 1010,7 29 0 1,8
25.09.2020 08:00:00 10,4 8,7 9,0 18,3 18,8 20 11 52 28 WNW 1010,4 8 0 1,6
25.09.2020 07:00:00 10,5 8,9 8,3 18,4 18,8 6 4 35 19 WSW 1010,1 56 0 0,4
25.09.2020 06:00:00 9,8 8,1 7,0 18,5 18,8 5 3 23 13 S 1009,9 60 0 0,0
25.09.2020 05:00:00 10,7 8,5 9,5 18,6 18,8 20 11 42 23 WSW 1010,5 9 0 0,8
25.09.2020 04:00:00 11,7 8,9 10,3 18,7 18,8 13 7 31 17 WSW 1010,3 52 0 0,0
25.09.2020 03:00:00 12,0 9,6 10,4 18,8 18,8 18 10 27 15 WSW 1010,4 51 0 0,0
25.09.2020 02:00:00 12,0 10,2 10,9 18,9 18,8 17 9 29 16 SW 1010,4 58 0 0,0
25.09.2020 01:00:00 12,3 10,5 11,1 19,0 18,8 10 5 29 16 WSW 1010,1 59 0 0,6
25.09.2020 00:00:00 12,8 11,9 11,9 19,0 18,8 10 5 27 15 WSW 1010,7 19 0 0,0
24.09.2020 23:00:00 13,1 11,7 12,3 19,1 18,8 22 12 59 32 W 1010,9 57 0 0,6
24.09.2020 22:00:00 14,9 12,4 13,9 19,2 18,8 23 12 46 25 WNW 1009,8 48 0 0,0
24.09.2020 21:00:00 16,3 13,2 14,7 19,2 18,8 18 10 52 28 SW 1008,8 43 0 0,0
24.09.2020 20:00:00 16,3 12,8 14,0 19,2 18,7 21 11 55 30 WSW 1008,6 55 0 0,6
24.09.2020 19:00:00 19,4 9,8 18,5 19,2 18,8 33 18 58 31 WSW 1008,2 56 34 0,0
24.09.2020 18:00:00 20,7 12,1 20,2 19,1 18,8 30 16 48 26 WSW 1007,8 37 53 0,0
24.09.2020 17:00:00 20,2 15,0 20,0 19,1 18,8 18 10 37 20 SSW 1008,2 42 20 0,0
24.09.2020 16:00:00 19,6 16,2 18,0 19,1 18,8 16 9 32 17 SSW 1008,9 57 18 0,0
24.09.2020 15:00:00 17,4 14,9 15,1 19,1 18,8 10 6 33 18 SSW 1009,7 59 0 2,9
24.09.2020 14:00:00 17,2 14,8 16,2 19,1 18,9 16 9 28 15 WSW 1010,4 2,0 1 1,6
24.09.2020 13:00:00 19,5 15,2 20,2 19,0 18,8 13 7 24 13 SSW 1010,0 54 3 0,0
24.09.2020 12:00:00 18,6 14,5 17,7 19,0 18,8 12 6 21 12 SW 1010,7 58 0 0,0
24.09.2020 11:00:00 17,6 15,2 16,5 19,1 18,8 11 6 28 15 W 1010,9 60 0 0,0
24.09.2020 10:00:00 17,3 16,3 16,5 19,1 18,9 14 8 25 13 WSW 1010,7 9 0 0,2
24.09.2020 09:00:00 16,9 15,9 16,2 19,1 18,8 13 7 28 15 SW 1010,5 57 0 0,2
24.09.2020 08:00:00 16,9 16,1 16,2 19,2 18,8 11 6 25 14 SSW 1010,4 20 0 0,4
24.09.2020 07:00:00 17,3 16,5 16,7 19,2 18,8 11 6 26 14 SSW 1010,4 6 0 1,2
24.09.2020 06:00:00 17,5 16,2 16,3 19,3 18,8 10 6 21 11 S 1010,5 36 0 0,0
24.09.2020 05:00:00 17,0 16,0 15,5 19,3 18,8 10 6 19 10 S 1010,8 38 0 0,0
24.09.2020 04:00:00 16,9 15,6 15,6 19,4 18,9 10 5 18 10 S 1011,0 40 0 0,0
24.09.2020 03:00:00 17,2 15,7 15,8 19,4 18,9 10 5 19 10 SSW 1011,6 41 0 0,0
24.09.2020 02:00:00 17,2 15,7 15,8 19,5 18,9 9 5 17 9 SSW 1011,5 41 0 0,0
24.09.2020 01:00:00 17,5 15,7 15,4 19,5 18,9 9 5 18 10 SSW 1011,6 45 0 0,0
24.09.2020 00:00:00 17,7 15,5 15,3 19,6 18,9 8 4 16 9 SW 1011,4 46 0 0,0
23.09.2020 23:00:00 18,3 15,5 15,6 19,6 18,9 8 4 15 8 SSW 1011,4 47 0 0,0
23.09.2020 22:00:00 18,6 15,3 16,1 19,6 18,9 9 5 16 9 SW 1011,1 56 0 0,0
23.09.2020 21:00:00 19,9 15,3 18,7 19,6 18,9 14 7 26 14 W 1010,3 60 0 0,0
23.09.2020 20:00:00 21,3 15,8 20,3 19,5 18,9 15 8 36 19 W 1009,4 52 0 0,0
23.09.2020 19:00:00 23,0 15,3 22,5 19,4 18,9 21 11 48 26 W 1008,7 59 14 0,0
23.09.2020 18:00:00 25,2 14,9 25,6 19,3 18,9 26 14 43 23 W 1008,0 60 23 0,0
23.09.2020 17:00:00 25,1 14,5 25,6 19,2 18,9 18 10 30 16 WSW 1007,8 57 5 0,0
23.09.2020 16:00:00 25,8 16,1 28,6 19,0 18,9 11 6 28 15 S 1008,1 49 33 0,0
23.09.2020 15:00:00 24,8 16,2 27,1 18,9 18,9 10 6 23 12 S 1008,5 53 30 0,0
23.09.2020 14:00:00 23,6 16,9 27,0 18,8 18,9 16 9 31 17 SSE 1009,3 20 32 0,0
23.09.2020 13:00:00 21,7 16,9 24,7 18,8 18,9 13 7 29 16 SE 1009,8 43 49 0,0
23.09.2020 12:00:00 19,7 17,1 19,9 18,9 18,9 14 7 27 14 SE 1010,5 20 17 0,0
23.09.2020 11:00:00 16,8 16,0 19,8 18,9 18,9 13 7 23 13 SE 1010,7 14 9 0,0
23.09.2020 10:00:00 15,9 15,9 14,9 19,0 18,9 5 3 13 7 E 1010,6 6 12 0,0
23.09.2020 09:00:00 14,1 14,1 13,3 19,0 18,9 7 4 12 7 E 1010,9 1,2 21 0,0
23.09.2020 08:00:00 13,3 13,3 11,9 19,1 18,9 7 4 10 6 E 1011,0 0,2 0 0,0
23.09.2020 07:00:00 12,5 12,5 10,4 19,2 18,9 9 5 11 6 E 1011,1 0,4 0 0,0
23.09.2020 06:00:00 12,3 12,3 10,3 19,3 18,9 8 4 11 6 ENE 1011,4 3,4 0 0,0
23.09.2020 05:00:00 12,5 12,3 10,5 19,4 18,9 7 4 8 5 ENE 1011,5 3,0 0 0,0
23.09.2020 04:00:00 13,3 13,1 11,2 19,5 18,9 7 4 8 5 E 1012,0 3,0 0 0,0
23.09.2020 03:00:00 13,4 13,1 11,2 19,6 18,9 5 3 7 4 ENE 1012,5 2,9 0 0,0
23.09.2020 02:00:00 13,9 13,6 11,1 19,7 18,9 4 2 5 3 E 1012,9 0,9 0 0,0
23.09.2020 01:00:00 14,7 14,4 11,4 19,7 18,9 0 0 4 2 N 1013,2 5 0 0,0
23.09.2020 00:00:00 15,5 15,0 12,4 19,8 18,9 3 2 5 3 E 1013,3 13 0 0,0
22.09.2020 23:00:00 16,2 15,1 13,1 19,8 18,9 3 2 4 2 SSE 1013,2 20 0 0,0
22.09.2020 22:00:00 17,9 15,7 15,6 19,8 18,9 2 1 12 6 S 1012,9 37 0 0,0
22.09.2020 21:00:00 19,1 15,2 17,7 19,7 18,9 9 5 19 11 WSW 1012,6 30 0 0,0
22.09.2020 20:00:00 20,4 16,2 19,4 19,6 18,9 10 5 20 11 W 1012,4 19 0 0,0
22.09.2020 19:00:00 21,7 15,3 21,2 19,6 18,9 10 6 18 10 W 1012,2 60 22 0,0
22.09.2020 18:00:00 23,5 15,3 28,4 19,5 18,9 9 5 21 11 NNW 1012,2 41 60 0,0
22.09.2020 17:00:00 23,8 15,8 25,7 19,3 18,9 13 7 34 19 WNW 1012,7 60 50 0,0
22.09.2020 16:00:00 23,6 16,1 26,4 19,2 18,9 14 8 23 12 WNW 1013,2 20 29 0,0
22.09.2020 15:00:00 21,8 16,3 27,6 19,1 18,9 9 5 19 11 WNW 1013,8 18 44 0,0
22.09.2020 14:00:00 21,0 17,0 22,5 19,0 18,9 8 4 15 8 W 1014,5 18 5 0,0
22.09.2020 13:00:00 19,7 16,9 21,0 19,1 18,9 8 5 16 9 W 1014,9 37 1 0,0
22.09.2020 12:00:00 18,6 16,6 20,1 19,1 18,9 3 1 8 4 SSW 1015,0 36 0 0,0
22.09.2020 11:00:00 17,5 16,4 17,7 19,1 18,9 3 2 9 5 NNW 1015,0 20 0 0,0
22.09.2020 10:00:00 16,8 16,3 16,2 19,1 18,9 6 4 11 6 W 1014,8 29 0 0,6
22.09.2020 09:00:00 16,4 16,1 15,8 19,2 18,9 8 4 11 6 W 1014,9 5 0 4,3
22.09.2020 08:00:00 16,6 16,3 16,2 19,3 18,9 5 3 14 8 NE 1014,8 15 0 0,8
22.09.2020 07:00:00 16,7 16,5 16,1 19,3 18,9 6 3 9 5 WNW 1014,7 16 0 2,0
22.09.2020 06:00:00 16,8 16,5 16,4 19,4 18,9 9 5 17 9 WNW 1014,6 4,1 0 4,8
22.09.2020 05:00:00 17,2 16,9 16,9 19,5 18,9 8 4 25 13 SW 1014,9 1,1 0 17,1
22.09.2020 04:00:00 17,2 17,0 16,9 19,7 18,9 11 6 24 13 W 1015,2 1,0 0 29,8
22.09.2020 03:00:00 17,3 17,0 17,1 20,1 18,9 5 3 25 14 SW 1015,7 0,7 0 20,0
22.09.2020 02:00:00 17,5 17,2 16,3 20,2 18,9 8 4 12 7 W 1016,0 7 0 0,0
22.09.2020 01:00:00 17,1 16,8 14,1 20,2 18,9 3 1 5 3 SW 1016,3 5 0 0,0
22.09.2020 00:00:00 17,2 16,6 14,2 20,3 18,9 3 2 13 7 WNW 1016,4 5 0 0,0
21.09.2020 23:00:00 18,1 17,5 17,8 20,4 18,9 9 5 13 7 W 1016,7 18 0 0,0
21.09.2020 22:00:00 18,1 17,5 17,7 20,4 18,9 7 4 17 9 W 1016,6 19 0 0,0
21.09.2020 21:00:00 18,1 17,5 17,7 20,4 18,9 13 7 21 11 WNW 1016,2 32 0 0,0
21.09.2020 20:00:00 18,2 17,2 17,7 20,4 18,9 9 5 14 8 WSW 1016,3 20 2 0,2
21.09.2020 19:00:00 18,5 17,5 18,0 20,4 18,9 8 5 19 10 NW 1015,8 9 0 0,6
21.09.2020 18:00:00 19,2 17,5 18,1 20,3 18,9 6 3 30 16 WNW 1016,2 13 0 0,4
21.09.2020 17:00:00 21,1 15,9 21,3 20,2 18,9 14 8 30 16 WSW 1015,8 59 0 0,0
21.09.2020 16:00:00 23,2 17,0 26,4 20,0 18,9 6 3 17 9 NNW 1015,3 60 1 0,0
21.09.2020 15:00:00 23,9 16,2 28,8 19,9 18,9 7 4 19 10 NE 1015,5 60 9 0,0
21.09.2020 14:00:00 23,9 17,9 27,8 19,8 18,9 7 4 20 11 N 1016,2 35 33 0,0
21.09.2020 13:00:00 22,4 17,1 26,2 19,7 18,9 8 4 15 8 W 1016,9 37 23 0,0
21.09.2020 12:00:00 20,7 17,1 23,6 19,7 18,9 6 3 16 9 W 1017,1 25 0 0,0
21.09.2020 11:00:00 19,8 17,2 20,5 19,8 18,9 4 2 12 7 N 1017,2 19 0 0,0
21.09.2020 10:00:00 18,9 17,2 18,7 19,8 18,9 9 5 11 6 W 1016,9 18 0 0,0
21.09.2020 09:00:00 18,4 17,2 18,0 19,8 18,9 7 4 14 7 W 1016,8 18 0 0,0
21.09.2020 08:00:00 18,1 17,5 17,3 19,9 18,9 5 3 9 5 W 1016,4 20 0 0,0
21.09.2020 07:00:00 17,9 17,3 16,5 19,9 18,9 3 2 8 4 WNW 1016,1 20 0 0,0
21.09.2020 06:00:00 18,0 17,4 16,0 20,0 18,9 4 2 7 4 SW 1015,9 27 0 0,0
21.09.2020 05:00:00 17,7 17,1 16,0 20,0 18,9 4 2 7 4 SW 1015,8 28 0 0,0
21.09.2020 04:00:00 17,8 17,2 16,0 20,1 18,9 4 2 6 3 SW 1015,9 27 0 0,0
21.09.2020 03:00:00 18,0 17,2 16,4 20,2 18,9 2 1 7 4 S 1016,2 26 0 0,0
21.09.2020 02:00:00 18,2 17,4 16,3 20,2 18,9 5 3 8 4 SW 1016,5 37 0 0,0
21.09.2020 01:00:00 18,4 17,1 17,1 20,3 18,9 5 3 10 5 WNW 1016,0 43 0 0,0
21.09.2020 00:00:00 18,8 17,3 17,1 20,3 18,9 4 2 11 6 WSW 1016,1 49 0 0,0
20.09.2020 23:00:00 19,1 17,8 16,8 20,3 18,9 4 2 6 3 W 1016,2 40 0 0,0
20.09.2020 22:00:00 19,6 17,0 18,0 20,3 18,9 2 1 8 4 N 1016,0 60 0 0,0
20.09.2020 21:00:00 20,1 16,9 18,7 20,3 18,9 6 3 8 4 SSW 1015,4 60 0 0,0
20.09.2020 20:00:00 20,9 17,3 19,7 20,2 18,9 3 1 11 6 SW 1014,7 58 16 0,0
20.09.2020 19:00:00 21,6 17,2 22,8 20,2 18,9 7 4 16 8 W 1014,1 60 22 0,0
20.09.2020 18:00:00 22,0 17,4 23,9 20,1 18,9 10 5 17 9 W 1013,9 59 25 0,0
20.09.2020 17:00:00 21,7 17,3 19,6 20,0 18,9 12 6 18 10 W 1013,9 59 0 0,0
20.09.2020 16:00:00 20,7 17,3 20,0 19,8 18,9 14 8 24 13 SW 1014,1 46 0 0,0
20.09.2020 15:00:00 23,5 16,3 28,8 19,7 18,9 14 8 29 16 SSE 1014,1 56 39 0,0
20.09.2020 14:00:00 23,9 16,4 25,3 19,7 18,9 12 6 29 15 SSE 1014,3 53 17 0,0
20.09.2020 13:00:00 22,0 16,5 22,9 19,6 18,9 6 3 15 8 SSE 1014,5 53 10 0,0
20.09.2020 12:00:00 20,1 16,5 21,2 19,7 18,9 9 5 21 12 SE 1014,9 47 0 0,0
20.09.2020 11:00:00 19,6 16,2 21,4 19,6 18,9 12 7 22 12 SSE 1014,7 19 0 0,0
20.09.2020 10:00:00 19,3 16,5 19,5 19,7 18,9 11 6 19 11 S 1014,4 51 0 0,0
20.09.2020 09:00:00 18,2 16,5 17,5 19,7 18,9 8 5 15 8 SE 1014,0 55 0 0,0
20.09.2020 08:00:00 17,9 16,1 17,4 19,8 18,9 8 5 16 9 SE 1013,8 17 0 0,0
20.09.2020 07:00:00 17,8 16,1 16,6 19,9 18,9 9 5 19 10 SE 1013,8 51 0 0,0
20.09.2020 06:00:00 16,9 15,9 14,2 20,0 18,9 6 3 11 6 ESE 1013,7 43 0 0,0
20.09.2020 05:00:00 16,8 15,7 13,2 20,1 18,9 4 2 16 9 SSE 1013,8 46 0 0,0
20.09.2020 04:00:00 16,0 14,4 12,6 20,2 18,9 4 2 12 7 E 1014,1 60 0 0,0

tt = Température de l'air
td = dewpoint
tt 5cm = Température de l'air 5cm
tt -20cm = Température de l'air -20cm
tt -100cm = Température de l'air -100cm
ff = Vitesse du vent
fx = gusts
dd = Direction du vent
ppp = reduced air pressure
vv = visibility
sd = Ensoleillement
rr = Quantités de précipitations

stations d'obs. à proximité